Klamath Falls, OR

12:33 PM PDT on October 18, 2017 (GMT -0700)
Klamath Falls International

Weather History for KLMT - February, 2013

Change the Weather History Date:

Tuesday, February 19, 2013

  Actual Average Record
Temperature  
Mean Temperature 26 °F 35 °F  
Max Temperature 31 °F 46 °F 67 °F (1977)
Min Temperature 20 °F 24 °F -7 °F (1990)
Degree Days  
Heating Degree Days 39 30  
Month to date heating degree days 592 600  
Since 1 July heating degree days 4389 4580  
Cooling Degree Days 0 0  
Month to date cooling degree days 0 0  
Year to date cooling degree days 0 0  
Moisture  
Dew Point 24 °F    
Average Humidity 92    
Maximum Humidity 100    
Minimum Humidity 81    
Precipitation  
Precipitation 0.11 in 0.07 in 0.49 in (1986)
Month to date precipitation 0.23 1.31  
Year to date precipitation 0.67 3.16  
Snow  
Snow 0.00 in - - ()
Snow Depth 1.00 in    
Sea Level Pressure  
Sea Level Pressure 29.65 in    
Wind  
Wind Speed 8 mph (East)    
Max Wind Speed 22 mph    
Max Gust Speed 25 mph    
Visibility 5 miles    
Events Fog , Snow    
T = Trace of Precipitation, MM = Missing Value Source: NWS Daily Summary

Daily Weather History Graph

Daily Weather History Graph

Search for Another Location

Airport or City:

Trip Planner

Search our weather history database for the weather conditions in past years. The results will help you decide how hot, cold, wet, or windy it might be!

Date:

Astronomy

Feb. 19, 2013 Rise Set
Actual Time 6:56 AM PST 5:45 PM PST
Civil Twilight 6:28 AM PST 6:13 PM PST
Nautical Twilight 5:55 AM PST 6:46 PM PST
Astronomical Twilight 5:23 AM PST 7:18 PM PST
Moon 12:17 PM PST (2/19) 2:36 AM PST (2/19)
Length of Visible Light 11h 45m
Length of Day
10h 48m
Waxing Gibbous, 68% of the Moon is Illuminated
Feb 19
Waxing Gibbous
Feb 25
Full
Mar 4
Last Quarter
Mar 11
New
Mar 19
First Quarter

Hourly Weather History & Observations

Time (PST) Temp. Windchill Dew Point Humidity Pressure Visibility Wind Dir Wind Speed Gust Speed Precip Events Conditions
12:53 AM 24.1 °F - 21.9 °F 91% 29.72 in 10.0 mi Calm Calm - N/A   Clear
1:53 AM 19.9 °F 14.9 °F 19.0 °F 96% 29.71 in 10.0 mi SE 3.5 mph - N/A   Clear
2:15 AM 19.4 °F 11.5 °F 19.4 °F 100% 29.67 in 2.0 mi SSE 5.8 mph - N/A   Partly Cloudy
2:18 AM 19.4 °F 10.4 °F 19.4 °F 100% 29.67 in 1.0 mi SSE 6.9 mph - N/A   Mist
2:25 AM 21.2 °F 13.6 °F 21.2 °F 100% 29.66 in 0.2 mi SSE 5.8 mph - N/A Fog Light Freezing Fog
2:35 AM 24.8 °F 17.9 °F 23.0 °F 93% 29.66 in 0.2 mi SSE 5.8 mph - N/A Fog Light Freezing Fog
2:53 AM 25.0 °F 20.7 °F 24.1 °F 96% 29.67 in 0.2 mi SSE 3.5 mph - N/A Fog Light Freezing Fog
3:06 AM 24.8 °F 20.5 °F 23.0 °F 93% 29.64 in 0.2 mi SE 3.5 mph - N/A Fog Light Freezing Fog
3:17 AM 21.2 °F - 21.2 °F 100% 29.64 in 0.2 mi Calm Calm - N/A Fog Light Freezing Fog
3:31 AM 21.2 °F - 19.4 °F 93% 29.63 in 0.2 mi Calm Calm - N/A Fog Light Freezing Fog
3:34 AM 21.2 °F 16.4 °F 19.4 °F 93% 29.63 in 0.2 mi East 3.5 mph - N/A Fog Light Freezing Fog
3:39 AM 21.2 °F 14.9 °F 21.2 °F 100% 29.63 in 0.5 mi East 4.6 mph - N/A Fog Light Freezing Fog
3:44 AM 24.8 °F 17.9 °F 21.2 °F 86% 29.63 in 1.0 mi East 5.8 mph - N/A   Overcast
3:47 AM 24.8 °F 19.1 °F 23.0 °F 93% 29.63 in 2.0 mi East 4.6 mph - N/A   Overcast
3:53 AM 26.1 °F 20.5 °F 25.0 °F 96% 29.65 in 7.0 mi East 4.6 mph - 0.00 in Snow Light Snow
4:30 AM 28.4 °F 22.2 °F 26.6 °F 93% 29.62 in 5.0 mi ESE 5.8 mph - 0.00 in Snow Light Snow
4:53 AM 26.1 °F 21.9 °F 25.0 °F 96% 29.64 in 10.0 mi North 3.5 mph - 0.00 in   Overcast
5:53 AM 24.1 °F - 21.9 °F 91% 29.63 in 10.0 mi Calm Calm - N/A   Overcast
6:00 AM 24.8 °F - 21.2 °F 86% 29.58 in 10.0 mi Calm Calm - N/A   Overcast
6:53 AM 24.8 °F 20.5 °F 24.8 °F 100% 29.62 in 10.0 mi ESE 3.5 mph - N/A   Overcast
7:16 AM 26.6 °F 21.2 °F 24.8 °F 93% 29.58 in 7.0 mi SE 4.6 mph - 0.00 in Snow Light Snow
7:42 AM 26.6 °F 22.6 °F 24.8 °F 93% 29.57 in 9.0 mi SSE 3.5 mph - 0.00 in   Overcast
7:53 AM 28.0 °F 20.0 °F 25.0 °F 88% 29.61 in 10.0 mi SSE 8.1 mph - 0.00 in   Overcast
8:05 AM 28.4 °F 18.5 °F 26.6 °F 93% 29.57 in 7.0 mi SSE 11.5 mph - 0.00 in Snow Light Snow
8:24 AM 28.4 °F 20.4 °F 26.6 °F 93% 29.57 in 1.5 mi SE 8.1 mph - 0.00 in Snow Light Snow
8:29 AM 28.4 °F 22.2 °F 26.6 °F 93% 29.57 in 0.8 mi East 5.8 mph - 0.00 in Snow Light Snow
8:45 AM 28.4 °F 22.2 °F 28.4 °F 100% 29.58 in 0.5 mi SSW 5.8 mph - 0.01 in Fog , Snow Snow
9:14 AM 28.4 °F 23.3 °F 28.4 °F 100% 29.57 in 0.2 mi ESE 4.6 mph - 0.02 in Fog , Snow Snow
9:32 AM 28.4 °F 23.3 °F 28.4 °F 100% 29.57 in 1.8 mi East 4.6 mph - 0.02 in Snow Light Snow
9:59 AM 28.4 °F 22.2 °F 28.4 °F 100% 29.57 in 0.5 mi SE 5.8 mph - 0.01 in Fog , Snow Snow
10:12 AM 28.4 °F 18.0 °F 28.4 °F 100% 29.57 in 0.2 mi SE 12.7 mph - 0.02 in Fog , Snow Heavy Snow
10:26 AM 28.4 °F 19.1 °F 28.4 °F 100% 29.57 in 0.2 mi SSE 10.4 mph - 0.02 in Fog , Snow Snow
10:53 AM 28.9 °F 20.4 °F 28.0 °F 96% 29.63 in 0.2 mi SSE 9.2 mph - 0.04 in Fog , Snow Heavy Snow
11:31 AM 26.6 °F 19.1 °F 26.6 °F 100% 29.59 in 0.5 mi WSW 6.9 mph - 0.03 in Fog , Snow Snow
11:53 AM 28.0 °F 18.6 °F 26.1 °F 92% 29.65 in 0.8 mi West 10.4 mph - 0.03 in Snow Light Snow
12:11 PM 28.4 °F 17.5 °F 26.6 °F 93% 29.59 in 0.5 mi NNW 13.8 mph - 0.00 in Fog , Snow Snow
12:44 PM 28.4 °F 17.0 °F 24.8 °F 86% 29.60 in 1.5 mi NNW 15.0 mph - 0.00 in Snow Light Snow
12:53 PM 28.9 °F 18.2 °F 26.1 °F 89% 29.66 in 7.0 mi NNW 13.8 mph - 0.00 in   Overcast
1:01 PM 28.4 °F 17.5 °F 26.6 °F 93% 29.60 in 10.0 mi NNW 13.8 mph - N/A   Overcast
1:53 PM 30.9 °F 20.7 °F 27.0 °F 85% 29.66 in 10.0 mi NW 13.8 mph - 0.00 in Snow Light Snow
2:53 PM 30.0 °F 18.7 °F 26.1 °F 85% 29.67 in 10.0 mi NNW 16.1 mph - 0.01 in   Mostly Cloudy
4:53 PM 30.9 °F 22.2 °F 26.1 °F 82% 29.70 in 10.0 mi NNW 10.4 mph - N/A   Overcast
5:53 PM 30.9 °F 24.3 °F 26.1 °F 82% 29.73 in 10.0 mi NNW 6.9 mph - N/A   Mostly Cloudy
6:32 PM 28.4 °F 19.1 °F 24.8 °F 86% 29.70 in 10.0 mi NW 10.4 mph - N/A   Mostly Cloudy
6:53 PM 28.9 °F 21.9 °F 24.1 °F 82% 29.77 in 10.0 mi NNW 6.9 mph - N/A   Mostly Cloudy
7:53 PM 27.0 °F 20.5 °F 23.0 °F 85% 29.78 in 7.0 mi NNW 5.8 mph - N/A   Mostly Cloudy
8:53 PM 25.0 °F 14.2 °F 21.9 °F 88% 29.81 in 7.0 mi NNW 11.5 mph - N/A   Mostly Cloudy
9:53 PM 26.1 °F 15.6 °F 21.9 °F 84% 29.83 in 7.0 mi NNW 11.5 mph - N/A   Mostly Cloudy
10:53 PM 24.1 °F 13.1 °F 19.9 °F 84% 29.87 in 10.0 mi NNW 11.5 mph - N/A   Partly Cloudy
11:53 PM 25.0 °F 14.8 °F 19.9 °F 81% 29.90 in 10.0 mi NNW 10.4 mph - N/A   Clear